Weather History for KCEY - January, 2013

Change the Weather History Date:

Sunday, January 6, 2013

  Actual Average (KPAH) Record (KPAH)
Temperature  
Mean Temperature 34 °F 34 °F  
Max Temperature 44 °F 43 °F 68 °F (2008)
Min Temperature 24 °F 26 °F -2 °F (1970)
Degree Days  
Heating Degree Days 31 31  
Month to date heating degree days 183  
Since 1 July heating degree days 1814  
Cooling Degree Days 0 0  
Month to date cooling degree days 0  
Year to date cooling degree days 0  
Moisture  
Dew Point 29 °F    
Average Humidity 78    
Maximum Humidity 100    
Minimum Humidity 61    
Precipitation  
Precipitation 0.00 in 0.11 in 1.22 in (1991)
Month to date precipitation 0.73  
Year to date precipitation 0.73  
Snow  
Snow 0.00 in 0.00 in 4.10 in (1996)
Month to date snowfall 0.5  
Since 1 July snowfall 2.8  
Snow Depth -    
Sea Level Pressure  
Sea Level Pressure 30.26 in    
Wind  
Wind Speed 9 mph (West)    
Max Wind Speed 15 mph    
Max Gust Speed 21 mph    
Visibility 10 miles    
Events      
T = Trace of Precipitation, MM = Missing Value Source: NWS Daily Summary

Daily Weather History Graph

Daily Weather History Graph

Search for Another Location

Airport or City:

Trip Planner

Search our weather history database for the weather conditions in past years. The results will help you decide how hot, cold, wet, or windy it might be!

Date:

Astronomy

Jan. 06, 2013 Rise Set
Actual Time 7:06 AM CST 4:52 PM CST
Civil Twilight 6:37 AM CST 5:21 PM CST
Nautical Twilight 6:05 AM CST 5:53 PM CST
Astronomical Twilight 5:34 AM CST 6:24 PM CST
Moon 1:24 AM CST (1/6) 12:17 PM CST (1/6)
Length of Visible Light 10h 43m
Length of Day
9h 46m
Waning Crescent, 33% of the Moon is Illuminated
Jan 6
Waning Crescent
Jan 11
New
Jan 18
First Quarter
Jan 26
Full
Feb 3
Last Quarter

Hourly Weather History & Observations

Time (CST) Temp. Windchill Dew Point Humidity Pressure Visibility Wind Dir Wind Speed Gust Speed Precip Events Conditions
12:15 AM 37.4 °F 31.4 °F 30.2 °F 75% 30.23 in 10.0 mi SW 8.1 mph - N/A   Overcast
12:35 AM 35.6 °F 28.6 °F 30.2 °F 81% 30.22 in 10.0 mi SW 9.2 mph - N/A   Scattered Clouds
12:55 AM 35.6 °F 29.2 °F 30.2 °F 81% 30.22 in 10.0 mi SW 8.1 mph - N/A   Partly Cloudy
1:15 AM 35.6 °F 29.2 °F 30.2 °F 81% 30.21 in 10.0 mi SW 8.1 mph - N/A   Mostly Cloudy
1:35 AM 35.6 °F 29.2 °F 30.2 °F 81% 30.21 in 10.0 mi SW 8.1 mph - N/A   Overcast
1:55 AM 35.6 °F 28.0 °F 32.0 °F 87% 30.21 in 10.0 mi SW 10.4 mph - N/A   Overcast
2:15 AM 35.6 °F 28.6 °F 32.0 °F 87% 30.21 in 10.0 mi SW 9.2 mph - N/A   Overcast
2:35 AM 37.4 °F 31.4 °F 32.0 °F 81% 30.20 in 10.0 mi SW 8.1 mph - N/A   Overcast
2:55 AM 37.4 °F 30.3 °F 32.0 °F 81% 30.19 in 10.0 mi SW 10.4 mph - N/A   Overcast
3:15 AM 37.4 °F 32.1 °F 32.0 °F 81% 30.19 in 10.0 mi SW 6.9 mph - N/A   Overcast
3:35 AM 35.6 °F 29.9 °F 32.0 °F 87% 30.19 in 10.0 mi SW 6.9 mph - N/A   Overcast
3:55 AM 35.6 °F 29.9 °F 32.0 °F 87% 30.18 in 10.0 mi SSW 6.9 mph - N/A   Overcast
4:15 AM 35.6 °F 29.9 °F 32.0 °F 87% 30.19 in 10.0 mi SW 6.9 mph - N/A   Overcast
4:35 AM 35.6 °F 28.6 °F 32.0 °F 87% 30.19 in 10.0 mi SW 9.2 mph - N/A   Overcast
4:55 AM 35.6 °F 28.0 °F 32.0 °F 87% 30.18 in 10.0 mi SW 10.4 mph - N/A   Overcast
5:15 AM 35.6 °F 29.2 °F 32.0 °F 87% 30.18 in 10.0 mi SW 8.1 mph - N/A   Mostly Cloudy
5:35 AM 35.6 °F 28.6 °F 32.0 °F 87% 30.18 in 10.0 mi SW 9.2 mph - N/A   Clear
5:55 AM 35.6 °F 29.9 °F 32.0 °F 87% 30.18 in 10.0 mi SW 6.9 mph - N/A   Clear
6:15 AM 33.8 °F 27.7 °F 32.0 °F 93% 30.18 in 9.0 mi SW 6.9 mph - N/A   Partly Cloudy
6:35 AM 33.8 °F 28.6 °F 32.0 °F 93% 30.19 in 7.0 mi SW 5.8 mph - N/A   Scattered Clouds
6:55 AM 33.8 °F 27.0 °F 32.0 °F 93% 30.19 in 6.0 mi SW 8.1 mph - N/A   Mostly Cloudy
7:15 AM 33.8 °F 26.4 °F 32.0 °F 93% 30.19 in 4.0 mi SW 9.2 mph - N/A   Overcast
7:35 AM 33.8 °F 27.0 °F 32.0 °F 93% 30.20 in 4.0 mi WSW 8.1 mph - N/A   Overcast
7:55 AM 35.6 °F 28.6 °F 33.8 °F 93% 30.20 in 5.0 mi WSW 9.2 mph - N/A   Mostly Cloudy
8:15 AM 35.6 °F 28.6 °F 33.8 °F 93% 30.21 in 5.0 mi WSW 9.2 mph - N/A   Partly Cloudy
8:35 AM 35.6 °F 27.5 °F 35.6 °F 100% 30.22 in 7.0 mi WSW 11.5 mph - N/A   Partly Cloudy
8:55 AM 37.4 °F 29.3 °F 33.8 °F 87% 30.22 in 9.0 mi WSW 12.7 mph - N/A   Mostly Cloudy
9:15 AM 37.4 °F 29.3 °F 33.8 °F 87% 30.23 in 10.0 mi West 12.7 mph - N/A   Mostly Cloudy
9:35 AM 39.2 °F 32.0 °F 33.8 °F 81% 30.23 in 10.0 mi WSW 11.5 mph - N/A   Mostly Cloudy
10:15 AM 41.0 °F 34.7 °F 32.0 °F 70% 30.23 in 10.0 mi WSW 10.4 mph - N/A   Partly Cloudy
10:35 AM 41.0 °F 34.7 °F 32.0 °F 70% 30.22 in 10.0 mi WSW 10.4 mph - N/A   Clear
10:55 AM 42.8 °F 38.0 °F 32.0 °F 66% 30.21 in 10.0 mi WSW 8.1 mph - N/A   Clear
11:15 AM 44.6 °F 40.2 °F 32.0 °F 61% 30.21 in 10.0 mi West 8.1 mph - N/A   Scattered Clouds
11:35 AM 44.6 °F 38.4 °F 32.0 °F 61% 30.21 in 10.0 mi West 12.7 mph - N/A   Scattered Clouds
11:55 AM 42.8 °F 35.8 °F 32.0 °F 66% 30.21 in 10.0 mi West 13.8 mph 18.4 mph N/A   Mostly Cloudy
12:15 PM 44.6 °F 39.7 °F 32.0 °F 61% 30.21 in 10.0 mi NW 9.2 mph - N/A   Overcast
12:35 PM 42.8 °F 36.6 °F 32.0 °F 66% 30.21 in 10.0 mi NW 11.5 mph - N/A   Overcast
12:55 PM 41.0 °F 33.5 °F 32.0 °F 70% 30.21 in 10.0 mi NW 13.8 mph - N/A   Overcast
1:15 PM 42.8 °F 35.8 °F 30.2 °F 61% 30.21 in 10.0 mi WNW 13.8 mph - N/A   Overcast
1:35 PM 42.8 °F 36.2 °F 32.0 °F 66% 30.22 in 10.0 mi NW 12.7 mph - N/A   Overcast
1:55 PM 41.0 °F 33.5 °F 30.2 °F 65% 30.23 in 10.0 mi WNW 13.8 mph 20.7 mph N/A   Overcast
2:15 PM 39.2 °F 31.2 °F 30.2 °F 70% 30.25 in 10.0 mi NW 13.8 mph 19.6 mph N/A   Overcast
2:35 PM 39.2 °F 30.8 °F 28.4 °F 65% 30.26 in 10.0 mi NW 15.0 mph - N/A   Overcast
2:55 PM 39.2 °F 31.2 °F 28.4 °F 65% 30.28 in 10.0 mi NNW 13.8 mph 18.4 mph N/A   Overcast
3:15 PM 37.4 °F 28.5 °F 26.6 °F 65% 30.29 in 10.0 mi NNW 15.0 mph 18.4 mph N/A   Overcast
3:35 PM 37.4 °F 29.8 °F 26.6 °F 65% 30.30 in 10.0 mi NNW 11.5 mph - N/A   Overcast
3:55 PM 37.4 °F 30.8 °F 26.6 °F 65% 30.31 in 10.0 mi NW 9.2 mph - N/A   Mostly Cloudy
4:15 PM 35.6 °F 27.1 °F 26.6 °F 70% 30.32 in 10.0 mi NNW 12.7 mph - N/A   Partly Cloudy
4:35 PM 35.6 °F 28.0 °F 24.8 °F 65% 30.33 in 10.0 mi North 10.4 mph - N/A   Clear
4:55 PM 33.8 °F 27.0 °F 24.8 °F 70% 30.33 in 10.0 mi North 8.1 mph - N/A   Clear
5:15 PM 32.0 °F 26.4 °F 24.8 °F 75% 30.34 in 10.0 mi North 5.8 mph - N/A   Clear
5:35 PM 32.0 °F 26.4 °F 24.8 °F 75% 30.35 in 10.0 mi North 5.8 mph - N/A   Clear
5:55 PM 32.0 °F 27.5 °F 24.8 °F 75% 30.36 in 10.0 mi North 4.6 mph - N/A   Clear
6:15 PM 32.0 °F 27.5 °F 24.8 °F 75% 30.36 in 10.0 mi North 4.6 mph - N/A   Clear
6:35 PM 32.0 °F 28.7 °F 24.8 °F 75% 30.37 in 10.0 mi NNE 3.5 mph - N/A   Partly Cloudy
6:55 PM 32.0 °F 27.5 °F 24.8 °F 75% 30.37 in 10.0 mi NNE 4.6 mph - N/A   Clear
7:15 PM 32.0 °F 27.5 °F 24.8 °F 75% 30.37 in 10.0 mi NNE 4.6 mph - N/A   Clear
7:35 PM 30.2 °F 26.7 °F 24.8 °F 80% 30.37 in 10.0 mi NNE 3.5 mph - N/A   Clear
7:55 PM 28.4 °F 23.3 °F 23.0 °F 80% 30.38 in 10.0 mi NNE 4.6 mph - N/A   Clear
8:15 PM 30.2 °F 25.4 °F 23.0 °F 75% 30.38 in 10.0 mi NNE 4.6 mph - N/A   Clear
8:35 PM 30.2 °F 26.7 °F 23.0 °F 75% 30.38 in 10.0 mi NNE 3.5 mph - N/A   Clear
8:55 PM 26.6 °F - 23.0 °F 86% 30.39 in 10.0 mi Calm Calm - N/A   Clear
9:15 PM 28.4 °F 24.6 °F 24.8 °F 86% 30.39 in 10.0 mi NE 3.5 mph - N/A   Clear
9:35 PM 28.4 °F 23.3 °F 23.0 °F 80% 30.39 in 10.0 mi NE 4.6 mph - N/A   Clear
9:55 PM 26.6 °F 20.0 °F 23.0 °F 86% 30.39 in 10.0 mi NE 5.8 mph - N/A   Clear
10:15 PM 24.8 °F 20.5 °F 21.2 °F 86% 30.40 in 10.0 mi East 3.5 mph - N/A   Clear
10:55 PM 24.8 °F 20.5 °F 23.0 °F 93% 30.40 in 10.0 mi ENE 3.5 mph - N/A   Clear